Du Bois, PA

12:46 AM EDT on April 23, 2018 (GMT -0400)
Du Bois-Jefferson County

Weather History for KDUJ - May, 2013

Change the Weather History Date:

Sunday, May 19, 2013

  Actual Average Record
Temperature  
Mean Temperature 66 °F 57 °F  
Max Temperature 73 °F 68 °F 86 °F (1971)
Min Temperature 58 °F 46 °F 28 °F (2002)
Degree Days  
Heating Degree Days 0 9  
Month to date heating degree days 138 204  
Since 1 July heating degree days 6427 6717  
Cooling Degree Days 1 1  
Month to date cooling degree days 1 7  
Year to date cooling degree days 2 11  
Growing Degree Days 14 (Base 50)    
Moisture  
Dew Point 56 °F    
Average Humidity 74    
Maximum Humidity 87    
Minimum Humidity 61    
Precipitation  
Precipitation 0.00 in 0.14 in 0.94 in (1997)
Month to date precipitation 0.93 2.51  
Sea Level Pressure  
Sea Level Pressure 30.11 in    
Wind  
Wind Speed 9 mph (SE)    
Max Wind Speed 14 mph    
Max Gust Speed 18 mph    
Visibility 10 miles    
Events      
T = Trace of Precipitation, MM = Missing Value Source: NWS Daily Summary

Daily Weather History Graph

Daily Weather History Graph

Search for Another Location

Airport or City:

Astronomy

May. 19, 2013 Rise Set
Actual Time 5:53 AM EDT 8:31 PM EDT
Civil Twilight 5:21 AM EDT 9:03 PM EDT
Nautical Twilight 4:41 AM EDT 9:43 PM EDT
Astronomical Twilight 3:57 AM EDT 10:28 PM EDT
Moon 2:30 PM EDT (5/19) 2:19 AM EDT (5/19)
Length of Visible Light 15h 41m
Length of Day
14h 37m
Waxing Gibbous, 65% of the Moon is Illuminated
May 19
Waxing Gibbous
May 25
Full
May 31
Last Quarter
Jun 8
New
Jun 16
First Quarter

Hourly Weather History & Observations

Time (EDT) Temp. Dew Point Humidity Pressure Visibility Wind Dir Wind Speed Gust Speed Precip Events Conditions
12:45 AM 60.8 °F 55.4 °F 82% 30.16 in 10.0 mi SE 13.8 mph 18.4 mph N/A   Overcast
12:56 AM 60.1 °F 55.0 °F 83% 30.14 in 10.0 mi SE 9.2 mph - N/A   Overcast
1:56 AM 59.0 °F 54.0 °F 83% 30.13 in 8.0 mi SE 9.2 mph - N/A   Overcast
2:56 AM 57.9 °F 54.0 °F 87% 30.12 in 7.0 mi SE 9.2 mph - N/A   Overcast
3:56 AM 57.9 °F 54.0 °F 87% 30.11 in 8.0 mi ESE 6.9 mph - N/A   Overcast
4:56 AM 57.9 °F 54.0 °F 87% 30.12 in 7.0 mi SE 9.2 mph - N/A   Overcast
5:56 AM 57.9 °F 54.0 °F 87% 30.12 in 8.0 mi ESE 8.1 mph - N/A   Overcast
6:56 AM 57.9 °F 54.0 °F 87% 30.14 in 7.0 mi SE 9.2 mph - N/A   Overcast
7:56 AM 57.9 °F 54.0 °F 87% 30.15 in 10.0 mi SE 8.1 mph - N/A   Overcast
8:56 AM 59.0 °F 55.0 °F 87% 30.16 in 10.0 mi SE 9.2 mph - N/A   Overcast
9:56 AM 63.0 °F 55.9 °F 78% 30.15 in 10.0 mi SE 8.1 mph - N/A   Mostly Cloudy
10:11 AM 64.4 °F 55.4 °F 73% 30.16 in 10.0 mi SE 6.9 mph - N/A   Mostly Cloudy
10:18 AM 64.4 °F 57.2 °F 77% 30.16 in 10.0 mi SE 9.2 mph - N/A   Overcast
10:56 AM 68.0 °F 57.0 °F 68% 30.13 in 10.0 mi ESE 9.2 mph - N/A   Overcast
11:56 AM 71.1 °F 57.9 °F 63% 30.11 in 10.0 mi SE 10.4 mph 18.4 mph N/A   Clear
12:56 PM 70.0 °F 57.9 °F 65% 30.10 in 10.0 mi SE 8.1 mph - N/A   Overcast
1:31 PM 71.6 °F 59.0 °F 64% 30.11 in 10.0 mi ESE 9.2 mph - N/A   Scattered Clouds
1:43 PM 69.8 °F 57.2 °F 64% 30.10 in 10.0 mi ESE 8.1 mph - N/A   Mostly Cloudy
2:56 PM 71.1 °F 57.9 °F 63% 30.07 in 10.0 mi SE 8.1 mph - N/A   Overcast
3:56 PM 70.0 °F 57.9 °F 65% 30.08 in 10.0 mi SE 8.1 mph - N/A   Overcast
4:09 PM 69.8 °F 57.2 °F 64% 30.09 in 10.0 mi SE 11.5 mph 18.4 mph N/A   Overcast
4:45 PM 69.8 °F 57.2 °F 64% 30.08 in 10.0 mi SE 8.1 mph - N/A   Mostly Cloudy
4:56 PM 69.1 °F 57.9 °F 68% 30.06 in 10.0 mi SE 11.5 mph 18.4 mph N/A   Overcast
5:56 PM 66.9 °F 57.0 °F 70% 30.08 in 10.0 mi SE 11.5 mph - N/A   Overcast
6:56 PM 64.9 °F 57.0 °F 75% 30.08 in 10.0 mi SE 8.1 mph - N/A   Overcast
7:10 PM 64.4 °F 57.2 °F 77% 30.09 in 10.0 mi SE 11.5 mph - N/A   Overcast
7:56 PM 63.0 °F 57.0 °F 81% 30.07 in 10.0 mi ESE 9.2 mph - N/A   Overcast
8:56 PM 63.0 °F 57.9 °F 84% 30.07 in 10.0 mi SE 10.4 mph - N/A   Overcast
9:56 PM 62.1 °F 57.9 °F 86% 30.09 in 10.0 mi SE 6.9 mph - N/A   Overcast
10:56 PM 62.1 °F 57.9 °F 86% 30.08 in 10.0 mi ESE 9.2 mph - N/A   Overcast
11:56 PM 62.1 °F 57.9 °F 86% 30.06 in 10.0 mi SE 8.1 mph - N/A   Overcast